Location: ?????????
(38.5999°N, 22.7695°E)
Time: 04:45:45
(UTC+00:00)

PAYLOAD A - Pass Details

Date: 09 August 2024
Orbit: 690 x 831 km, 98.5° (Epoch: 09 September)

Event Time Altitude Azimuth Distance (km) Brightness Sun altitude
Rises 02:17:49 0° 12° (NNE) 3,224 8.0 -14.7°
Reaches altitude 10° 02:20:10 10° 11° (NNE) 2,273 7.1 -14.3°
Maximum altitude 02:25:09 83° 285° (WNW) 737 3.8 -13.5°
Drops below altitude 10° 02:29:56 10° 197° (SSW) 2,177 5.9 -12.7°
Enters shadow 02:29:56 10° 197° (SSW) 2,180 5.9 -12.7°
